Back to catalog

ONEWEB-0240

AliveCommunicationsPO
NORAD 48785·PAYLOAD·🇬🇧 United Kingdom

Launched May 28, 2021 from Vostochny Cosmodrome

Loading…

Next Passes (next 24 hours)

TLE

FreshSource: CelesTrak SupGP

Epoch: Sep 14, 2026, 08:06 UTC

1 48785C 21045U   26257.33798611  .00003293  00000+0  87563-2 0  2578
2 48785  87.8996 241.4148 0001913  76.8915 358.1812 13.15548771    16

Track ONEWEB-0240 in real time with AllMySat

Download on the App Store